Total_Precipitation_Accumulation
0.62 0.16 0.22 0.31 0.18 0.17 0.10 0.05 0.03 0.06 0.09 0.05 0.04 0.04 0.01 0.01 0.03 0.03 0.02 0.04 0.03 0.09 0.06 0.03 0.04 0.10 0.17 0.13 0.20 0.17 0.18 0.17 0.25 0.75 0.88 0.76 0.61 0.40 0.44 0.72 0.83 1.14 1.53
0.85 0.48 0.60 0.36 0.16 0.18 0.19 0.11 0.06 0.08 0.08 0.04 0.03 0.02 0.01 0.01 0.02 0.02 0.02 0.03 0.06 0.20 0.10 0.05 0.06 0.09 0.14 0.12 0.11 0.09 0.05 0.09 0.16 0.53 0.75 0.84 0.84 0.65 0.75 0.85 1.06 1.47 1.44
1.72 1.04 0.90 0.98 0.35 0.27 0.25 0.18 0.10 0.05 0.04 0.04 0.04 0.03 0.04 0.04 0.02 0.04 0.04 0.05 0.11 0.34 0.31 0.12 0.11 0.19 0.12 0.08 0.07 0.06 0.05 0.03 0.13 0.39 0.78 0.68 0.55 1.10 0.95 0.91 0.85 1.27 1.27
0.54 0.63 0.80 1.24 1.03 0.85 0.67 0.28 0.18 0.13 0.08 0.03 0.05 0.09 0.11 0.07 0.09 0.11 0.06 0.07 0.23 0.39 0.40 0.39 0.35 0.24 0.11 0.05 0.04 0.05 0.03 0.04 0.10 0.24 0.78 1.63 1.12 1.37 1.18 0.85 0.95 1.14 1.36
0.58 0.39 0.82 1.25 1.38 0.87 1.03 0.73 0.51 0.47 0.22 0.11 0.16 0.09 0.11 0.16 0.29 0.33 0.26 0.25 0.44 0.52 0.49 0.53 0.49 0.35 0.11 0.01 0.00 0.01 0.03 0.08 0.08 0.20 1.11 2.63 1.84 1.59 1.20 0.99 0.94 0.91 1.24
1.27 1.01 1.68 2.11 1.54 1.07 1.00 1.23 2.12 1.92 1.31 1.01 0.66 0.44 0.32 0.53 0.65 0.58 0.48 0.44 0.50 0.60 0.47 0.43 0.47 0.23 0.02 0.00 0.00 0.00 0.03 0.06 0.24 0.36 0.64 1.81 1.89 2.19 2.19 1.37 1.13 1.09 1.11
2.86 2.39 2.34 3.06 2.34 1.68 1.21 1.45 2.07 3.42 3.92 3.38 2.34 1.40 1.63 1.84 1.49 1.16 0.72 0.56 0.51 0.54 0.56 0.48 0.33 0.21 0.08 0.03 0.11 0.09 0.04 0.18 0.42 0.79 0.85 1.72 3.24 2.54 2.69 2.08 1.43 1.27 1.09
5.89 6.62 4.71 4.83 5.24 4.02 2.65 1.37 1.60 2.19 3.44 3.43 3.54 3.38 3.25 2.61 1.68 1.29 0.79 0.59 0.54 0.52 0.45 0.48 0.32 0.29 0.17 0.27 0.25 0.24 0.22 0.22 0.34 0.82 1.11 1.13 2.47 3.20 2.93 2.19 1.49 1.11 1.00
6.92 10.16 10.57 7.27 6.42 5.67 6.33 4.11 1.79 1.64 1.82 2.19 2.31 2.33 2.63 2.99 2.05 1.53 0.97 0.74 0.73 0.72 0.39 0.34 0.29 0.40 0.58 0.54 0.23 0.26 0.29 0.32 0.39 1.06 1.41 0.81 0.94 2.27 5.23 3.85 1.56 0.88 0.71
7.66 6.75 6.98 5.70 4.95 4.65 4.82 5.36 3.72 2.50 2.16 1.89 1.86 1.82 1.74 2.24 2.16 1.54 1.05 0.78 0.83 0.73 0.52 0.40 0.50 0.63 0.58 0.56 0.57 0.48 0.38 0.29 0.16 0.30 0.84 0.75 0.87 0.79 1.26 1.81 1.18 0.76 0.64
3.73 4.11 3.73 2.64 1.87 2.18 2.33 2.73 3.35 3.29 2.69 2.72 2.92 2.15 1.79 1.61 2.16 1.84 1.39 1.10 1.18 1.05 0.77 0.57 0.66 0.67 0.58 0.53 0.45 0.47 0.38 0.35 0.25 0.32 0.53 0.59 0.92 0.94 1.20 1.08 0.84 0.62 0.52
2.56 2.35 1.70 1.17 0.76 0.74 0.85 0.96 1.50 2.23 2.57 2.27 3.60 2.55 2.25 1.45 1.72 1.63 1.81 1.68 1.77 1.77 0.93 0.96 0.89 0.71 0.64 0.63 0.56 0.52 0.63 0.84 0.80 0.78 1.11 0.95 0.97 1.17 0.94 0.72 0.72 0.81 0.69
2.50 1.69 1.23 1.09 0.94 0.99 0.83 0.91 1.10 1.64 2.35 2.64 2.84 2.67 2.68 1.83 2.11 1.84 2.01 1.61 1.49 2.22 1.42 1.39 1.00 0.78 0.67 0.68 0.70 0.78 0.68 0.70 1.01 1.16 1.36 1.43 1.26 1.49 1.25 0.80 0.77 0.83 0.89
1.45 0.66 0.53 0.79 0.86 1.22 1.17 1.02 1.08 1.45 2.19 2.36 1.98 1.81 2.26 1.75 2.02 1.89 1.74 1.59 1.35 2.09 1.67 1.53 1.09 1.01 1.01 1.00 1.00 1.03 0.94 0.70 0.69 0.71 1.01 1.18 1.26 1.37 1.45 1.31 1.01 1.08 1.06
0.93 0.67 0.53 0.45 0.81 0.96 1.17 1.33 1.36 1.40 1.63 1.99 1.80 1.14 1.77 1.81 1.66 2.15 2.25 2.04 1.57 2.12 1.43 1.05 0.95 0.89 0.91 1.04 1.04 0.97 0.92 1.00 0.71 0.84 1.29 1.83 1.54 1.49 1.79 2.15 1.93 1.92 1.60
0.52 0.57 0.65 0.66 0.77 0.84 0.99 1.06 1.21 1.50 2.00 1.78 1.71 1.20 1.22 1.53 1.95 2.59 2.50 2.28 1.64 1.67 1.66 1.38 0.90 0.88 0.83 1.03 0.96 0.90 0.79 0.90 0.67 0.65 0.65 1.20 1.20 1.17 1.30 1.82 2.18 2.09 1.67
0.18 0.30 0.72 1.20 0.67 0.60 0.66 0.81 0.75 0.84 1.18 1.27 1.40 1.22 1.03 1.18 1.50 2.02 2.21 2.05 1.84 1.75 1.48 1.74 1.52 1.26 1.23 1.33 1.04 0.98 0.73 0.75 0.54 0.49 0.45 0.49 0.64 0.77 0.88 1.22 1.43 1.51 1.63
0.09 0.20 0.78 1.39 1.02 0.65 0.53 0.76 0.74 0.94 1.15 1.37 1.64 1.57 1.15 1.17 1.59 1.89 1.96 2.16 2.43 2.71 2.43 2.16 2.24 1.77 1.40 1.49 1.42 1.00 0.83 0.72 0.65 0.33 0.30 0.45 0.50 0.54 0.61 0.66 0.91 1.10 1.18
0.05 0.19 0.53 0.86 1.10 1.06 1.03 1.14 1.08 1.10 1.33 1.49 1.66 1.90 1.89 2.12 2.37 2.31 2.34 2.70 3.07 3.07 2.80 2.40 1.94 1.81 1.45 1.45 1.61 1.34 1.08 0.78 0.80 0.68 0.35 0.31 0.44 0.48 0.49 0.51 0.49 0.60 0.79
0.09 0.33 0.59 0.76 1.25 1.74 1.20 0.85 1.07 1.39 1.30 1.31 1.34 1.66 1.79 1.72 2.13 2.46 2.55 2.24 2.38 2.58 2.58 2.50 2.48 2.30 1.94 1.73 1.83 1.85 1.47 1.29 1.03 0.95 0.66 0.43 0.42 0.48 0.47 0.55 0.51 0.47 0.63
0.18 0.43 0.65 1.02 1.03 0.77 0.67 0.70 0.93 1.09 1.25 1.37 1.22 1.43 1.88 1.91 2.04 2.62 2.96 3.13 2.61 2.07 2.30 2.42 2.55 2.42 2.24 1.99 2.39 2.41 1.88 1.36 1.17 0.93 0.79 0.63 0.64 0.53 0.65 0.58 0.66 0.58 0.70
0.44 0.45 0.34 0.23 0.33 0.41 0.51 0.66 0.84 0.96 1.22 1.31 1.47 1.40 1.69 1.80 2.11 2.18 2.56 2.88 2.76 2.24 1.83 1.70 2.11 2.72 2.95 2.74 2.76 2.76 2.62 2.33 1.72 1.34 0.95 0.71 0.56 0.56 0.70 0.87 0.70 0.70 0.81
0.06 0.07 0.14 0.25 0.45 0.42 0.44 0.61 0.83 1.20 1.47 1.39 1.42 1.24 1.29 1.61 1.97 2.29 2.55 2.56 2.38 2.18 2.04 2.14 2.46 2.88 2.80 2.90 2.75 3.01 2.84 2.25 1.72 1.51 1.28 0.92 0.95 0.98 0.83 0.95 1.13 0.94 0.80
0.04 0.14 0.22 0.27 0.32 0.27 0.40 0.63 0.65 0.71 0.78 0.66 0.63 0.74 0.80 1.24 1.90 2.59 3.06 2.94 3.15 3.44 3.02 2.85 2.63 2.99 3.60 3.97 4.43 3.84 3.05 2.69 2.38 2.33 2.12 1.99 1.87 1.73 1.68 2.04 2.12 2.22 2.20
0.07 0.12 0.16 0.30 0.36 0.29 0.40 0.75 0.86 0.84 0.64 0.56 0.56 0.70 0.82 1.05 1.47 2.02 2.68 3.21 3.51 3.59 3.47 3.39 3.24 3.33 3.41 3.31 3.54 3.70 4.05 3.74 3.12 2.55 2.29 2.25 2.35 2.10 1.65 1.35 1.70 2.03 1.93
0.16 0.17 0.17 0.19 0.32 0.34 0.35 0.61 1.04 1.47 1.73 1.80 1.48 1.07 0.85 1.03 1.31 1.72 2.09 2.44 3.16 3.47 3.42 3.19 3.32 3.24 2.95 3.01 3.38 3.43 2.97 2.74 2.70 2.64 2.38 2.03 2.13 2.05 2.03 1.82 1.55 1.50 1.52